IUS R/B(2)

Satellite information

Favourite Embed

Satellite Type and Status

ROCKET BODYIN ORBIT

Key statistics

Satellite IUS R/B(2) at a glance.

Uptime

12553

Days in orbit

Revolutions

≈ 1.0

Per day

Orbit

OTHER

Other

Inclination

14.0

Latest

Satellite identification and parameters

Extended collection of information and parameters for IUS R/B(2).

Object identification

Identified? True

Debris? False

Object name: IUS R/B(2)

International designator: 1991-054D

Object number (NORAD): 21641

Object ID (CCSDS): 21641

Country: UNITED STATES OF AMERICA (US)

Current information (Y/N): Y

RCS size: LARGE

Orbital parameters

Period: 1434.406 minutes

Inclination: 13.9578 deg

SMA: 42131.623 km

Apoapsis: 35907.176 km

Periapsis: 35599.8 km

RAAN: 334.4697 deg

Eccentricy: 0.00364781

Argument of periapsis: 340.6739 deg

Mean anomaly: 197.0239 deg

Mean motion: 1.00390007 rev/day

Mean motion (dot): -0.00000086 rev/day2

B* drag term: 0.0 1/REarth

Two-line elements (TLE)

Creation date: Dec. 14, 2025, 3:07 a.m.

Reference frame: TEME

Reference center: EARTH

Epoch: Dec. 13, 2025, 12:03 p.m. UTC

TLE line 0: 0 IUS R/B(2)

TLE line 1: 1 21641U 91054D 25347.50262110 -.00000086 00000-0 00000-0 0 9996

TLE line 2: 2 21641 13.9578 334.4697 0036478 340.6739 197.0239 1.00390007 45500

Live tracking on map

Real-time ground track for satellite IUS R/B(2).

In-orbit conjunctions

A list of the most updated potential collisions computed for object IUS R/B(2).

Target Orbit TCA Probability of collision Miss distance Type
ITALSAT 1 OTHER 2025-08-07 17:53:56 TBA 4700.0 (m) PAYLOAD

Associated space launch

STS-43 was the ninth flight of the Space Shuttle Atlantis. The nine day mission had a primary goal of launching the fifth Tracking and Data Relay Satellite, TDRS-E.

IUS R/B(2) was lifted into orbit during the mission ‘Space Shuttle Atlantis / OV-104 | STS-43’, on board a Space Shuttle space rocket.

The launch took place on Aug. 2, 1991, 3:02 p.m. from Launch Complex 39A.

For more information about the launch, click the button.

Launch to space Space Shuttle Atlantis / OV-104 | STS-43
Space Shuttle Atlantis / OV-104 | STS-43

Agency: N/A

Status: Launch Successful

Launch date: Aug. 2, 1991, 3:02 p.m. UTC

Rocket: Space Shuttle

Launch pad: Launch Complex 39A

Location: Kennedy Space Center, FL, USA

...

Latest news about this satellite

There are no fresh news available about this satellite. Check back as we update our databases every day.


Newsletter sign-up

Weekly statistics, charts and insights to help you stay on top of the space industry.